TimeCDT,TemperatureF,Dew PointF,Humidity,Sea Level PressureIn,VisibilityMPH,Wind Direction,Wind SpeedMPH,Gust SpeedMPH,PrecipitationIn,Events,Conditions,WindDirDegrees,DateUTC
12:56 AM,64.9,63.0,93,30.02,4.0,Calm,Calm,-,N/A,,Clear,0,2012-11-03 05:56:00
1:56 AM,64.0,63.0,96,30.01,3.0,Variable,3.5,-,N/A,,Clear,0,2012-11-03 06:56:00
2:52 AM,64.4,62.6,94,30.05,2.5,Calm,Calm,-,N/A,,Partly Cloudy,0,2012-11-03 07:52:00
2:56 AM,64.0,63.0,96,30.01,2.5,Calm,Calm,-,N/A,,Clear,0,2012-11-03 07:56:00
3:05 AM,64.4,62.6,94,30.05,3.0,Calm,Calm,-,N/A,,Clear,0,2012-11-03 08:05:00
3:18 AM,64.4,62.6,94,30.05,2.5,Calm,Calm,-,N/A,,Partly Cloudy,0,2012-11-03 08:18:00
3:31 AM,64.4,62.6,94,30.05,3.0,Calm,Calm,-,N/A,,Partly Cloudy,0,2012-11-03 08:31:00
3:38 AM,64.4,62.6,94,30.05,1.8,Calm,Calm,-,N/A,,Partly Cloudy,0,2012-11-03 08:38:00
3:56 AM,64.0,62.1,93,30.01,2.0,Calm,Calm,-,N/A,,Scattered Clouds,0,2012-11-03 08:56:00
4:06 AM,64.4,62.6,94,30.06,1.5,Calm,Calm,-,N/A,,Scattered Clouds,0,2012-11-03 09:06:00
4:20 AM,62.6,62.6,100,30.06,2.5,Calm,Calm,-,N/A,,Scattered Clouds,0,2012-11-03 09:20:00
4:41 AM,64.4,62.6,94,30.06,1.2,Calm,Calm,-,N/A,,Scattered Clouds,0,2012-11-03 09:41:00
4:48 AM,62.6,62.6,100,30.07,1.0,Calm,Calm,-,N/A,,Mist,0,2012-11-03 09:48:00
4:56 AM,63.0,62.1,97,30.03,0.8,Calm,Calm,-,N/A,,Mist,0,2012-11-03 09:56:00
5:56 AM,60.1,59.0,96,30.04,0.5,Calm,Calm,-,N/A,Fog,Fog,0,2012-11-03 10:56:00
6:56 AM,59.0,57.9,96,30.06,0.5,Calm,Calm,-,0.01,Fog,Fog,0,2012-11-03 11:56:00
7:56 AM,59.0,57.9,96,30.08,0.5,Calm,Calm,-,N/A,Fog,Fog,0,2012-11-03 12:56:00
8:29 AM,62.6,60.8,94,30.13,1.2,Calm,Calm,-,N/A,,Overcast,0,2012-11-03 13:29:00
8:37 AM,62.6,60.8,94,30.13,3.0,Calm,Calm,-,N/A,,Mostly Cloudy,0,2012-11-03 13:37:00
8:51 AM,64.4,62.6,94,30.13,10.0,WNW,3.5,-,N/A,,Scattered Clouds,300,2012-11-03 13:51:00
8:56 AM,64.9,63.0,93,30.09,10.0,Calm,Calm,-,N/A,,Partly Cloudy,0,2012-11-03 13:56:00
9:56 AM,73.0,66.0,79,30.09,10.0,Variable,3.5,-,N/A,,Clear,0,2012-11-03 14:56:00
10:56 AM,78.1,64.9,64,30.09,10.0,NW,4.6,-,N/A,,Clear,310,2012-11-03 15:56:00
11:56 AM,81.0,63.0,54,30.07,10.0,Variable,5.8,-,N/A,,Clear,0,2012-11-03 16:56:00
12:56 PM,82.9,59.0,44,30.05,10.0,Variable,3.5,-,N/A,,Partly Cloudy,0,2012-11-03 17:56:00
1:56 PM,84.0,60.1,44,30.03,10.0,Variable,4.6,-,N/A,,Mostly Cloudy,0,2012-11-03 18:56:00
2:56 PM,84.0,60.1,44,30.01,10.0,SW,3.5,-,N/A,,Partly Cloudy,220,2012-11-03 19:56:00
3:56 PM,82.9,62.1,49,30.00,10.0,Variable,5.8,-,N/A,,Scattered Clouds,0,2012-11-03 20:56:00
4:56 PM,78.1,62.1,58,30.01,10.0,SSW,5.8,-,N/A,,Clear,210,2012-11-03 21:56:00
5:56 PM,73.0,61.0,66,30.01,10.0,South,4.6,-,N/A,,Clear,180,2012-11-03 22:56:00
6:56 PM,70.0,62.1,76,30.02,10.0,South,3.5,-,N/A,,Clear,190,2012-11-03 23:56:00
7:56 PM,66.9,62.1,84,30.04,10.0,Calm,Calm,-,N/A,,Clear,0,2012-11-04 00:56:00
8:56 PM,66.9,63.0,87,30.04,10.0,Calm,Calm,-,N/A,,Clear,0,2012-11-04 01:56:00
9:56 PM,66.9,63.0,87,30.05,10.0,Calm,Calm,-,N/A,,Clear,0,2012-11-04 02:56:00
10:56 PM,66.0,63.0,90,30.05,10.0,Calm,Calm,-,N/A,,Clear,0,2012-11-04 03:56:00
11:56 PM,64.9,63.0,93,30.04,8.0,Calm,Calm,-,N/A,,Clear,0,2012-11-04 04:56:00